Temp
20 18 18 20 21 21 21 21 21 21 20 20 20 19 19 18 18 18 17 17 17 17 17 17 16 16 17 17 18 19 20 22
21 19 18 19 19 20 20 20 21 20 20 20 20 19 19 18 18 18 17 16 17 17 17 16 16 17 17 17 18 19 20 21
22 20 18 20 20 19 19 19 20 19 19 19 19 19 18 18 18 17 17 17 18 17 16 17 17 16 16 17 18 20 21 21
22 21 20 19 22 21 18 19 18 18 18 18 18 20 20 19 18 17 17 16 17 16 17 17 16 16 15 16 17 21 20 21
23 22 21 19 22 23 21 21 20 19 20 20 19 21 19 18 18 17 16 15 16 15 14 15 16 19 18 17 18 19 20 20
25 23 21 20 20 23 23 23 22 21 21 20 20 20 19 18 18 17 17 17 18 17 17 17 18 19 19 18 19 19 20 20
26 24 22 20 20 22 22 23 23 23 22 21 21 20 19 19 18 18 19 19 19 19 19 18 19 19 19 19 18 18 20 19
26 25 23 21 19 20 21 21 23 23 22 20 18 18 19 19 17 18 20 21 20 20 19 19 19 19 18 18 18 18 18 18
25 25 24 22 21 19 19 21 22 23 22 20 18 18 19 19 18 18 20 21 21 19 19 19 19 18 18 17 18 18 18 18
24 25 24 21 20 20 20 20 21 21 21 21 19 18 19 19 20 20 19 20 20 19 19 19 18 18 18 18 17 17 17 17
21 21 21 20 19 19 19 19 19 20 20 20 19 18 18 18 19 20 19 19 18 18 18 18 18 18 18 18 18 18 17 17
21 21 21 21 20 19 18 18 18 18 18 19 18 18 17 17 17 17 18 17 17 18 17 16 17 17 18 18 17 17 17 16
21 20 20 21 21 20 19 18 17 17 17 17 17 17 17 17 16 16 17 17 17 17 16 16 16 17 18 18 16 16 16 16
20 20 19 20 21 20 19 19 19 19 18 17 17 17 16 16 16 15 16 16 16 17 15 15 16 17 17 17 16 15 15 15
20 20 19 18 18 20 20 20 19 18 16 16 17 16 16 16 15 15 15 15 15 15 15 15 15 16 16 17 16 16 15 14
19 19 19 18 18 18 18 19 19 19 18 17 16 15 16 15 15 15 15 15 15 15 14 14 15 15 15 16 18 18 16 15
18 18 19 18 17 17 18 18 18 18 18 18 17 17 17 16 15 14 15 15 15 14 13 12 13 14 12 13 14 14 16 14
18 18 18 18 18 18 17 17 17 17 17 17 17 16 16 16 15 14 14 14 14 14 13 12 11 12 13 11 12 12 11 11
18 18 18 18 18 18 17 16 16 16 17 17 16 16 15 14 13 13 13 13 13 12 12 11 10 11 10 10 10 10 10 9
18 18 18 18 18 17 17 16 16 17 16 16 15 15 14 13 13 12 12 12 12 11 11 11 11 10 9 9 8 9 8 9
Height
774 777 782 786 790 793 797 800 802 804 807 810 812 814 817 818 819 821 823 825 825 826 827 828 829 830 832 833 834 833 832 834
775 778 782 787 790 792 795 798 800 802 804 807 809 812 816 817 819 821 822 823 825 825 827 828 829 830 832 833 835 835 834 835
774 778 782 786 789 790 794 798 801 804 806 807 809 812 814 816 819 819 821 822 823 825 826 828 829 831 832 834 835 835 835 835
773 777 781 784 788 791 795 797 799 802 806 808 810 811 811 813 815 817 820 821 822 824 825 827 830 832 833 834 834 834 835 835
772 776 779 782 786 789 793 797 799 800 801 804 809 810 811 813 813 815 819 822 823 821 824 827 827 830 832 834 835 835 835 835
768 772 776 779 783 786 788 791 793 796 800 803 803 806 809 811 811 814 816 819 823 822 822 824 826 828 829 831 832 834 834 835
764 769 772 774 778 780 783 785 788 791 794 797 800 802 803 806 810 810 813 813 816 821 820 820 821 823 826 828 830 831 831 833
762 766 771 774 775 777 779 783 783 786 788 792 796 799 802 803 804 805 809 811 809 813 818 816 815 816 821 824 826 829 829 830
762 763 767 772 775 777 780 780 781 781 784 785 790 796 797 800 801 802 803 805 804 806 814 814 815 811 808 817 820 823 827 828
762 763 766 769 773 776 778 779 779 779 782 783 784 788 793 795 797 797 799 801 800 801 807 809 809 812 808 806 812 816 818 822
768 768 769 771 771 773 774 776 777 778 779 780 781 783 787 790 791 793 795 797 797 800 802 804 806 805 806 808 810 810 813 815
770 771 771 771 772 773 774 774 773 775 776 777 778 779 780 784 786 788 789 790 792 795 798 799 801 803 803 801 805 807 810 811
775 774 773 771 771 773 772 771 771 770 771 772 772 774 774 776 779 781 781 783 783 787 791 795 794 794 797 799 804 803 803 806
778 777 776 774 772 772 770 769 768 768 769 768 768 770 769 769 771 771 774 774 774 777 778 784 787 788 789 792 797 801 799 798
777 778 777 777 774 771 770 768 768 766 765 764 764 763 763 762 762 763 764 766 764 765 768 768 774 777 777 779 789 784 789 793
779 778 778 776 775 773 772 769 766 765 765 763 762 760 758 756 756 754 754 755 756 755 756 758 761 761 768 763 760 764 770 777
780 779 777 777 775 773 770 768 766 763 761 761 760 757 755 754 753 751 750 748 745 744 750 750 749 753 755 753 752 761 753 762
779 779 776 774 773 771 770 768 765 763 760 759 756 755 752 751 750 747 745 743 740 739 735 737 739 739 741 745 749 751 753 751
778 776 774 772 770 768 766 765 763 760 757 754 753 751 748 747 746 743 742 740 738 736 735 732 730 733 733 736 739 739 744 748
773 773 771 767 765 763 761 760 758 755 752 750 748 747 745 742 740 738 736 734 734 733 731 730 728 727 728 730 729 734 731 738
Wind_Speed
15 22 23 27 26 25 23 22 21 21 20 19 19 18 17 16 15 15 15 14 13 13 13 15 17 16 13 13 10 7 3 4
15 21 21 20 21 24 24 23 22 22 22 21 20 19 17 16 18 18 17 16 13 12 14 15 17 15 14 13 9 7 5 5
16 18 20 21 20 20 23 22 21 21 21 21 21 17 17 17 17 19 19 15 14 14 14 14 15 15 15 14 11 8 6 7
16 16 18 19 19 18 19 18 19 19 18 18 20 19 19 20 19 20 17 15 15 15 15 15 13 11 13 15 12 8 8 6
13 14 16 17 18 18 15 19 18 20 21 21 20 19 17 18 18 19 14 15 13 16 15 15 16 14 13 13 12 9 9 8
12 15 17 18 18 18 17 18 20 20 22 23 22 22 17 20 18 18 16 15 16 16 16 17 17 17 15 14 14 11 10 8
10 14 17 19 21 20 20 19 20 19 20 23 23 21 22 20 21 21 20 20 18 18 18 19 20 18 17 16 15 14 11 11
8 12 14 16 17 19 17 18 19 20 20 22 25 23 23 23 25 22 21 23 18 20 22 21 23 20 19 18 17 17 15 14
7 9 12 14 14 17 17 17 18 19 21 22 23 30 25 23 21 25 26 24 20 20 23 23 22 24 23 21 20 19 17 17
3 1 4 10 14 12 14 16 18 17 18 19 25 26 29 25 25 25 24 24 22 23 25 25 24 24 22 25 24 22 22 20
11 6 1 4 9 14 15 16 16 16 17 19 17 25 25 32 26 26 22 24 22 25 26 26 25 25 23 22 22 24 24 23
14 11 7 3 4 7 9 15 18 22 23 24 24 24 27 29 32 29 26 27 29 28 26 28 25 24 23 23 24 22 23 24
13 11 11 8 4 4 6 9 12 15 17 22 26 32 33 34 34 30 33 31 33 29 28 27 30 27 23 21 22 23 24 25
11 11 10 10 8 5 7 10 10 12 13 17 20 24 30 33 36 37 39 35 35 36 35 31 29 28 25 20 9 17 26 26
9 10 9 9 9 6 7 7 7 9 9 11 14 18 23 32 37 39 38 37 37 40 38 39 32 33 35 20 7 10 17 26
10 9 8 8 9 8 9 9 9 9 11 11 14 14 14 17 28 38 41 40 39 39 43 42 39 33 37 43 37 14 8 8
8 10 10 10 10 9 10 10 11 11 10 11 12 11 12 13 14 18 30 36 39 40 37 39 43 39 35 40 44 28 19 5
10 12 13 13 13 12 12 12 12 13 11 12 11 12 11 12 13 15 16 22 34 41 47 48 46 46 43 39 30 25 11 7
11 13 15 17 16 16 16 16 15 15 13 12 11 11 10 11 12 12 15 16 23 23 29 33 39 38 37 28 34 27 27 27
17 17 20 20 20 20 19 18 19 18 16 14 13 12 12 10 10 11 13 14 17 17 23 26 30 37 36 33 32 34 36 38
Wind_Direction
173 179 191 195 199 203 205 206 205 205 205 203 199 198 198 192 187 189 196 197 210 206 200 199 200 204 199 194 187 177 200 185
174 184 189 196 202 206 208 210 210 208 206 203 200 198 199 199 197 200 203 207 214 208 207 200 203 210 200 196 189 176 250 186
185 189 195 195 201 208 210 213 214 211 209 206 201 195 198 208 205 208 211 219 208 209 208 208 210 207 202 200 193 219 206 213
190 193 198 199 206 206 207 209 209 208 210 209 203 206 205 206 211 212 218 216 206 213 216 213 203 201 207 204 209 240 222 220
199 199 199 202 209 207 204 214 215 213 209 208 213 215 213 208 206 210 208 217 206 199 208 204 201 206 209 211 225 225 227 217
202 203 199 200 205 211 214 213 211 214 218 213 209 216 211 210 203 205 214 212 220 209 206 208 212 213 214 214 223 223 222 210
212 208 203 200 205 209 214 219 216 219 219 214 218 216 205 208 215 214 214 210 212 221 216 210 209 214 219 218 221 221 221 214
230 216 215 212 205 212 211 222 225 221 222 215 217 216 219 218 212 213 231 229 210 219 223 213 209 208 215 217 219 219 216 211
278 219 216 222 223 208 222 228 227 232 224 215 211 222 224 227 220 220 227 230 220 214 226 222 219 206 200 212 213 213 218 213
34 180 209 210 226 231 234 243 243 237 243 231 216 213 228 231 232 227 229 232 219 215 220 219 218 215 207 203 208 212 209 209
46 39 330 224 229 236 246 251 260 259 243 245 240 223 226 232 242 238 232 233 222 222 222 217 217 214 210 212 213 211 209 208
55 50 29 329 269 240 261 262 261 257 253 247 241 236 233 227 237 234 232 227 223 224 222 218 220 213 217 211 214 216 217 212
43 42 36 32 360 309 288 276 269 260 260 254 252 245 237 231 233 235 234 232 224 217 218 221 215 210 212 215 219 219 218 214
24 23 19 14 5 334 295 296 289 290 286 270 256 257 239 232 234 232 236 233 225 224 206 214 219 208 207 200 211 220 224 217
23 15 14 6 356 340 324 295 292 297 301 297 276 266 252 249 238 235 234 230 226 222 216 204 210 213 204 186 200 224 202 216
360 358 354 352 348 341 336 319 310 314 298 293 295 291 288 268 253 241 237 234 236 225 216 215 214 211 212 217 225 208 192 189
332 323 316 318 322 323 318 312 313 310 308 305 297 293 288 286 279 276 261 247 239 227 223 217 217 224 216 216 220 239 233 167
327 314 307 303 296 294 292 295 301 302 300 300 301 302 302 304 302 306 297 279 251 244 229 220 220 222 224 219 226 218 205 190
324 317 304 297 291 284 279 275 275 275 278 284 294 298 301 298 301 304 303 300 292 295 252 234 228 228 228 228 222 221 204 193
316 303 298 291 281 276 273 270 270 270 270 272 279 284 285 283 291 297 296 293 292 297 284 272 246 233 231 223 211 211 202 200